This is the latest recevied weather packets stored in our database for station/object WP4PW. If no packets are shown the sender has not sent any weather packets the latest 10 day(s).
| Time | Temp. | Humidity | Pressure | Rain* | Wind** | Luminosity | Snow |
|---|---|---|---|---|---|---|---|
| 1777642741 | 28.89° C | 80% | 1019.6 hPa | 0 mm | - | 469 W/m² | - |
| 1777642438 | 29.44° C | 78% | 1019.3 hPa | 0 mm | - | 432 W/m² | - |
| 1777642134 | 30° C | 77% | 1019.6 hPa | 0 mm | - | 408 W/m² | - |
| 1777641831 | 29.44° C | 74% | 1019.5 hPa | 0 mm | - | 476 W/m² | - |
| 1777641526 | 29.44° C | 78% | 1019.4 hPa | 0 mm | - | 528 W/m² | - |
| 1777641220 | 28.89° C | 79% | 1019.3 hPa | 0 mm | - | 492 W/m² | - |
| 1777640918 | 29.44° C | 79% | 1019.4 hPa | 0 mm | - | 442 W/m² | - |
| 1777640615 | 29.44° C | 78% | 1019.2 hPa | 0 mm | - | 256 W/m² | - |
| 1777640310 | 29.44° C | 78% | 1019 hPa | 0 mm | - | 413 W/m² | - |
| 1777640007 | 28.89° C | 79% | 1018.8 hPa | 0 mm | - | 505 W/m² | - |
| 1777639704 | 29.44° C | 79% | 1018.6 hPa | 0 mm | - | 508 W/m² | - |
| 1777639402 | 28.89° C | 79% | 1018.7 hPa | 0 mm | - | 225 W/m² | - |
| 1777639097 | 28.89° C | 80% | 1018.8 hPa | 0 mm | - | 444 W/m² | - |
| 1777638795 | 29.44° C | 80% | 1018.6 hPa | 0 mm | - | 299 W/m² | - |
| 1777638490 | 28.33° C | 81% | 1018.5 hPa | 0 mm | - | 438 W/m² | - |
| 1777638187 | 27.78° C | 84% | 1018.6 hPa | 0 mm | - | 271 W/m² | - |
| 1777637883 | 28.33° C | 84% | 1018.5 hPa | 0 mm | - | 145 W/m² | - |
| 1777637579 | 27.78° C | 85% | 1018.5 hPa | 0 mm | - | 300 W/m² | - |
| 1777637276 | 27.22° C | 86% | 1018.7 hPa | 0 mm | - | 348 W/m² | - |
| 1777636973 | 27.22° C | 86% | 1018.5 hPa | 0 mm | - | 191 W/m² | - |
| 1777636669 | 27.22° C | 86% | 1018.4 hPa | 0 mm | - | 184 W/m² | - |
| 1777636365 | 27.22° C | 86% | 1018.4 hPa | 0 mm | - | 270 W/m² | - |
| 1777636065 | 27.22° C | 86% | 1018.5 hPa | 0 mm | - | 184 W/m² | - |
| 1777635761 | 27.78° C | 85% | 1018.4 hPa | 0 mm | - | 141 W/m² | - |
| 1777635458 | 27.78° C | 85% | 1018.3 hPa | 0 mm | - | 151 W/m² | - |
* Rain latest hour (hover to see other rain measurements)
** Current wind speed in m/s (hover to see current wind gust speed)